Temperature
6 4 4 4 4 5 5 4 4 4 5 4 4 4 4 4 3 3 3 4 4 5 5 6 6 6 6 6 6 6 6 6 7 7 7 7 7 7 7 7 7 7 7 7
4 4 4 4 4 4 4 4 4 4 4 4 3 3 4 3 3 3 4 4 4 4 5 5 5 5 6 6 6 6 6 6 6 6 6 6 6 6 6 6 6 6 6 6
5 4 5 5 4 4 4 4 4 4 3 3 3 3 4 3 3 4 4 4 4 4 4 5 5 5 5 5 5 5 5 5 5 6 5 5 5 5 6 6 6 6 6 5
4 4 4 4 4 4 4 4 3 3 3 2 3 3 3 3 3 3 3 3 4 4 4 4 4 4 4 4 5 5 5 5 5 5 5 5 5 5 5 5 5 5 5 5
3 3 3 4 4 3 3 3 3 3 2 2 2 2 3 2 2 3 2 3 3 3 3 3 3 4 4 4 4 4 4 4 4 4 4 4 4 5 5 5 5 5 5 4
3 3 3 3 3 3 3 2 2 1 1 2 2 2 2 2 2 2 2 2 2 3 3 3 3 3 3 3 3 3 4 4 4 4 4 4 4 4 4 4 4 4 4 4
3 3 3 3 3 2 2 2 2 2 1 2 1 1 2 2 1 1 1 1 1 2 2 2 2 2 3 3 3 3 3 3 3 3 3 3 3 3 4 4 3 3 3 3
3 3 2 2 2 2 2 2 2 2 2 1 0 0 1 1 0 1 1 1 1 1 1 1 1 2 2 2 2 2 2 2 2 2 2 2 3 3 3 3 3 3 3 3
2 2 2 2 2 2 2 1 1 -0 -1 -1 0 -0 0 1 -0 -0 -0 -0 -0 0 1 1 1 1 1 1 1 1 1 2 2 2 2 2 2 2 2 2 2 2 2 2
1 1 1 1 2 1 1 0 -0 0 1 1 0 -0 1 1 0 -1 -1 -1 -0 0 0 0 0 0 0 0 0 1 1 1 1 1 1 1 1 1 2 2 2 2 2 2
0 0 1 0 0 1 0 -0 -1 -1 -1 0 0 1 0 -0 -1 -2 -2 -1 -0 -0 -0 -0 -0 -0 0 -0 -0 -0 0 0 0 0 0 1 1 1 1 1 1 1 1 1
-1 -1 -1 -0 -1 -0 -0 -0 -1 0 -1 -2 -2 0 -0 -2 -2 -2 -2 -1 -1 -1 -1 -1 -1 -0 -1 -1 -1 -1 -1 -0 -0 -0 -0 -0 0 0 0 0 1 1 1 1
-1 -1 0 1 0 -1 -1 -2 -2 -2 -2 -3 -2 0 -1 -3 -2 -2 -2 -1 -1 -1 -1 -1 -1 -1 -1 -1 -1 -1 -1 -1 -1 -1 -1 -1 -0 -0 -0 0 0 0 -0 0
-0 -2 -0 1 1 -1 -2 -2 -2 -2 -2 -3 -2 -0 -1 -2 -2 -2 -2 -2 -2 -2 -2 -2 -2 -2 -2 -2 -2 -2 -2 -2 -2 -1 -1 -1 -1 -1 -1 -1 -1 -1 -1 -1
-1 -2 -2 -2 -2 -2 -2 -2 -3 -3 -2 -2 -1 -2 -2 -2 -3 -3 -2 -2 -3 -2 -2 -2 -3 -3 -3 -3 -3 -3 -2 -2 -2 -2 -2 -2 -2 -2 -2 -1 -1 -1 -1 -1
-3 -3 -3 -3 -2 -3 -3 -3 -3 -3 -3 -3 -3 -3 -3 -3 -3 -3 -3 -3 -3 -3 -3 -3 -3 -3 -3 -3 -3 -3 -3 -3 -3 -3 -2 -2 -2 -2 -2 -2 -2 -2 -2 -2
-4 -3 -3 -2 -3 -3 -3 -3 -3 -4 -4 -4 -3 -3 -4 -4 -4 -4 -4 -3 -3 -3 -3 -4 -4 -4 -4 -4 -4 -4 -4 -3 -3 -3 -3 -3 -3 -3 -3 -3 -3 -3 -3 -3
-4 -4 -3 -3 -3 -2 -1 -4 -4 -4 -5 -5 -5 -5 -5 -5 -4 -4 -3 -3 -3 -3 -4 -4 -4 -4 -4 -4 -4 -4 -4 -4 -4 -4 -4 -4 -4 -4 -4 -3 -3 -3 -3 -3
-5 -4 -4 -4 -4 -3 -2 -4 -5 -5 -4 -5 -6 -5 -5 -5 -5 -4 -3 -3 -4 -4 -4 -4 -5 -5 -5 -5 -5 -5 -5 -5 -5 -5 -4 -4 -4 -4 -4 -4 -4 -4 -4 -4
-6 -5 -5 -5 -4 -2 -2 -4 -5 -5 -4 -5 -6 -6 -6 -6 -6 -5 -4 -4 -4 -5 -5 -5 -5 -5 -5 -5 -5 -5 -5 -5 -5 -5 -5 -5 -5 -5 -5 -5 -5 -5 -5 -5
-6 -6 -6 -6 -5 -4 -4 -6 -5 -3 -3 -4 -5 -5 -6 -7 -5 -5 -5 -5 -5 -5 -5 -5 -5 -5 -6 -6 -6 -6 -6 -6 -6 -6 -6 -6 -6 -6 -6 -6 -6 -6 -6 -6
-6 -7 -7 -6 -6 -4 -6 -7 -5 -4 -4 -4 -5 -5 -5 -5 -5 -5 -5 -5 -5 -6 -6 -6 -6 -6 -6 -6 -7 -6 -7 -6 -7 -6 -6 -6 -6 -6 -6 -6 -6 -6 -6 -6
-7 -6 -6 -6 -4 -5 -6 -5 -4 -4 -5 -5 -5 -5 -5 -6 -6 -6 -6 -6 -6 -6 -6 -6 -7 -7 -7 -7 -7 -7 -7 -7 -7 -7 -7 -7 -7 -7 -7 -7 -7 -7 -7 -7
-8 -8 -7 -7 -7 -6 -6 -5 -5 -5 -5 -5 -5 -6 -6 -6 -6 -6 -6 -6 -7 -7 -7 -7 -7 -7 -7 -7 -7 -8 -8 -8 -8 -8 -8 -8 -8 -8 -8 -8 -8 -8 -8 -7
-7 -9 -8 -8 -7 -7 -6 -5 -5 -5 -6 -6 -6 -6 -6 -6 -6 -7 -7 -7 -7 -7 -8 -8 -8 -8 -8 -8 -8 -8 -8 -8 -8 -8 -8 -8 -8 -8 -8 -8 -8 -8 -8 -8
-9 -9 -8 -6 -6 -7 -6 -5 -5 -6 -6 -6 -6 -6 -6 -7 -7 -7 -7 -8 -8 -8 -8 -8 -8 -8 -8 -8 -8 -8 -9 -9 -9 -9 -9 -9 -9 -9 -9 -9 -9 -9 -9 -9
Wind_Speed
3 4 1 4 4 4 3 3 6 6 2 2 7 10 10 5 5 6 6 6 6 5 4 2 1 1 2 1 1 2 2 2 2 2 2 2 2 2 1 1 2 2 3 4
3 2 5 3 2 2 3 4 5 6 3 3 6 10 10 6 6 7 8 8 7 5 3 2 1 1 1 2 2 2 3 3 2 2 2 2 2 2 1 1 1 2 3 3
4 3 2 1 0 1 3 4 5 6 5 2 4 7 7 5 4 4 5 6 6 6 5 3 2 2 1 2 3 3 3 2 2 2 2 2 2 1 1 1 1 0 2 2
2 2 1 0 1 1 5 3 4 4 3 4 1 5 7 5 4 5 5 5 4 4 4 3 3 2 3 3 2 2 2 2 2 2 3 4 3 3 2 2 2 0 1 2
2 1 1 1 3 2 3 2 2 2 2 4 2 3 8 4 6 6 5 5 4 4 3 3 3 3 3 2 1 1 1 1 1 2 4 5 4 3 2 2 2 2 1 1
2 1 1 2 2 2 1 2 2 2 1 5 5 4 7 4 6 5 4 3 3 3 2 2 2 2 2 1 1 1 0 1 1 2 3 4 5 4 3 2 3 2 1 1
4 2 2 1 2 2 3 3 3 4 2 6 2 3 8 5 4 4 5 4 3 2 1 2 2 3 3 2 2 1 1 1 2 2 3 4 5 5 5 4 4 3 2 2
2 5 2 2 1 1 1 3 3 3 5 6 3 5 6 3 4 4 3 3 3 3 2 2 3 3 3 3 2 2 2 2 2 2 3 3 4 4 4 4 4 4 4 3
1 4 2 1 1 2 2 2 2 3 1 4 6 6 8 2 4 4 4 4 4 4 3 3 3 3 3 3 3 3 3 2 3 3 3 3 3 4 4 4 3 3 3 3
2 4 4 3 1 2 2 4 3 2 1 5 6 6 5 5 5 5 5 5 5 4 4 4 3 3 3 3 3 3 3 3 3 3 3 3 3 4 4 4 4 4 4 3
1 2 4 2 2 3 1 2 2 2 2 3 5 7 4 4 3 3 4 5 5 5 5 4 4 4 3 3 3 3 3 3 3 3 4 3 3 3 3 4 4 4 4 4
2 2 4 5 3 2 4 5 5 3 4 4 4 8 3 3 3 3 5 6 6 5 5 4 4 4 4 4 4 4 4 3 3 4 4 4 3 3 3 4 4 4 4 5
3 2 3 5 2 2 1 3 4 3 2 4 5 8 2 2 4 4 6 7 6 6 5 5 4 4 4 4 4 5 4 4 4 3 3 3 3 4 4 4 4 4 5 4
2 3 6 7 6 3 4 4 4 4 5 6 10 13 11 8 7 7 7 6 6 6 5 5 5 5 5 5 5 5 5 4 3 3 3 3 4 4 4 4 4 4 4 5
2 3 6 9 8 6 8 8 7 9 9 10 11 11 14 10 8 7 7 7 6 6 6 6 6 5 5 5 5 5 5 4 3 3 3 4 4 4 3 3 3 3 4 4
1 2 3 6 6 6 9 11 10 11 9 11 13 15 11 9 7 7 7 6 7 7 7 6 6 5 5 6 6 6 5 5 3 3 4 4 4 3 3 3 3 3 3 4
2 2 2 6 5 5 8 8 8 6 7 7 11 11 7 7 8 8 7 6 7 7 7 6 6 6 6 6 6 5 5 4 3 3 4 4 3 3 3 3 3 3 3 3
4 3 2 3 4 7 7 1 5 7 8 8 8 8 7 8 9 7 5 5 7 7 6 7 6 6 6 5 5 5 4 3 3 4 4 3 3 3 3 3 3 3 3 3
3 4 2 2 4 9 7 2 3 5 8 6 8 9 7 6 6 6 4 4 5 6 6 6 5 5 5 5 4 4 4 3 3 4 4 4 3 3 3 3 3 3 3 3
3 2 3 2 3 8 6 1 2 1 7 3 4 6 5 3 4 6 5 5 5 5 5 5 5 4 4 5 3 3 3 3 4 4 4 4 3 3 3 4 3 2 2 3
1 1 4 5 6 9 5 1 2 2 6 3 3 4 3 4 6 6 5 5 5 5 5 4 4 4 4 4 3 3 3 4 5 5 4 4 3 4 3 3 2 2 2 2
7 5 5 4 5 9 3 4 5 6 3 3 4 4 4 6 6 6 5 5 5 6 5 4 4 5 4 3 3 3 5 5 5 4 4 4 4 3 3 2 2 2 2 3
7 8 6 9 8 4 4 5 4 2 4 4 4 4 4 5 6 6 5 5 5 5 5 4 3 5 5 4 3 4 5 5 4 4 4 4 4 3 3 2 2 2 2 3
5 3 4 6 9 7 6 6 5 3 4 5 4 4 3 5 6 6 5 5 5 5 5 4 4 4 5 4 4 4 5 4 3 4 4 3 3 3 2 2 2 2 3 3
6 5 4 8 8 6 7 7 7 6 5 5 5 4 4 5 6 5 5 5 5 5 5 4 4 5 6 5 5 5 4 3 3 3 3 3 3 3 2 2 2 3 3 4
5 6 7 9 7 6 7 5 5 5 6 6 5 5 4 4 5 5 5 5 5 5 4 4 4 5 5 5 5 5 4 3 2 3 3 2 2 2 2 2 3 4 4 5
Wind_Direction
35 73 236 244 222 217 213 235 263 270 277 255 250 264 270 248 236 243 243 243 246 254 275 288 299 253 205 211 194 190 202 205 149 160 170 169 180 166 118 77 99 119 116 121
49 266 256 246 227 203 222 255 273 290 298 252 268 272 271 244 232 235 237 239 245 259 278 279 289 325 221 207 221 211 210 203 184 187 179 171 168 169 171 119 103 131 136 134
178 255 270 178 136 272 260 235 257 272 316 322 304 290 274 261 240 250 241 237 243 237 239 249 255 257 270 242 226 225 219 208 197 180 152 139 126 120 159 181 183 162 159 155
236 314 13 148 244 242 266 257 259 274 304 293 306 284 282 274 275 261 257 252 252 247 238 252 261 268 260 263 254 237 213 202 195 174 168 168 178 191 199 194 192 172 155 160
276 334 14 242 254 219 248 302 275 264 225 290 278 245 285 299 278 269 260 258 257 248 236 247 260 260 269 268 262 259 226 222 213 188 183 181 190 198 189 179 177 181 161 165
260 244 208 234 272 204 263 9 26 43 84 273 253 220 280 261 253 283 285 271 269 267 256 264 287 303 312 318 315 304 240 267 232 207 195 190 192 189 181 185 194 202 200 187
327 306 341 30 19 14 49 59 3 349 337 260 271 228 257 267 263 268 283 287 297 295 300 302 310 318 315 306 294 278 238 279 269 230 214 206 202 196 197 198 202 202 203 210
328 298 310 10 117 243 216 142 169 238 259 289 310 245 259 277 309 316 316 310 328 327 321 303 299 302 300 299 290 273 256 269 276 249 234 217 209 204 205 202 205 210 212 211
247 274 331 345 338 153 153 184 180 152 271 282 276 285 298 295 342 352 355 355 336 322 315 302 305 304 302 301 290 270 258 273 271 258 241 223 216 212 211 207 205 210 213 214
174 280 299 313 29 8 164 155 109 143 252 279 288 279 273 299 319 335 342 335 321 324 319 308 305 302 299 297 299 303 279 266 269 263 252 239 220 213 210 206 212 215 215 209
142 225 301 336 205 214 130 139 143 161 199 219 282 276 236 239 278 293 302 311 311 312 310 304 304 307 311 319 311 306 301 284 276 268 259 248 235 214 210 216 216 213 215 208
145 146 268 259 248 236 201 195 172 195 240 215 245 270 266 230 281 296 307 314 316 312 310 308 305 312 320 317 314 305 297 282 273 270 259 247 247 226 219 230 226 213 207 212
147 141 316 327 327 356 246 218 198 168 172 205 228 263 278 312 314 308 303 306 314 315 314 318 319 314 308 307 306 302 296 283 277 270 258 249 245 234 229 230 228 214 205 209
144 187 211 237 254 239 258 251 215 185 218 237 237 259 285 296 301 306 303 299 302 304 306 311 313 312 307 303 299 297 296 291 279 266 257 253 250 244 239 234 224 215 207 212
141 229 240 257 269 260 253 252 236 226 226 234 253 255 273 283 285 292 295 302 307 308 310 310 308 308 309 309 304 300 300 302 294 279 270 266 265 258 247 238 231 219 215 223
142 238 274 277 274 265 269 264 245 243 243 247 264 273 276 284 289 295 295 298 300 301 304 305 307 307 305 303 303 304 306 308 305 283 276 279 274 263 250 244 234 225 222 224
187 182 266 277 302 320 281 254 220 226 224 216 242 258 285 294 290 285 283 287 285 293 299 301 303 298 296 297 300 298 300 310 305 288 285 282 273 263 256 249 233 230 228 229
172 176 220 287 341 260 252 201 200 227 247 234 247 265 273 277 291 284 269 273 286 294 298 299 302 304 303 303 308 307 312 310 301 294 289 285 276 269 265 251 245 242 241 238
177 170 189 226 265 276 288 258 192 223 268 233 239 264 283 305 316 293 279 272 274 282 290 293 296 300 308 312 317 322 320 315 308 300 294 288 273 268 265 258 254 245 240 246
66 129 170 188 241 259 267 263 236 179 278 262 224 256 279 332 308 290 314 311 300 301 302 303 308 316 317 319 330 329 318 317 304 298 294 292 285 269 262 260 261 257 246 246
130 162 201 216 240 264 264 244 116 192 268 306 244 256 249 240 250 285 316 319 312 309 310 315 317 319 317 326 338 327 319 306 302 306 304 301 292 278 269 264 260 255 254 250
185 184 201 187 221 256 214 139 188 235 293 291 280 267 252 261 281 295 303 308 315 317 320 325 325 321 325 334 335 319 308 308 314 313 309 303 296 286 273 256 260 253 238 240
205 201 201 203 224 263 188 212 244 271 276 280 284 283 270 276 284 292 298 300 304 306 310 316 313 315 321 327 322 305 308 318 320 317 310 308 307 298 284 255 252 257 240 235
242 216 212 250 261 259 257 267 277 267 269 281 278 277 267 273 281 285 291 298 302 303 304 310 311 309 311 316 315 301 308 316 320 316 315 318 318 308 292 269 252 244 238 239
225 191 221 254 270 291 269 252 258 271 279 286 288 278 266 271 281 281 287 292 295 298 304 305 297 296 300 310 311 311 316 318 318 316 317 321 321 318 313 297 265 264 249 242
204 197 209 247 246 236 266 274 267 269 276 276 281 294 298 276 276 283 285 288 291 294 300 303 300 299 301 306 307 310 310 306 307 315 320 318 317 319 317 313 318 312 306 298
Height
1499 1504 1507 1507 1506 1506 1507 1508 1508 1505 1502 1503 1501 1497 1492 1492 1492 1491 1491 1490 1490 1490 1490 1490 1491 1492 1493 1494 1495 1497 1498 1499 1501 1503 1504 1506 1507 1508 1510 1512 1513 1515 1516 1517
1504 1506 1504 1504 1504 1505 1506 1507 1507 1504 1501 1502 1500 1495 1489 1487 1487 1487 1486 1486 1487 1486 1487 1488 1488 1489 1489 1491 1492 1494 1495 1496 1498 1500 1501 1503 1504 1505 1507 1509 1510 1512 1513 1514
1503 1505 1503 1504 1505 1505 1505 1506 1506 1505 1503 1502 1501 1494 1487 1484 1484 1483 1483 1484 1484 1484 1484 1485 1486 1486 1487 1488 1489 1490 1491 1493 1495 1496 1498 1500 1501 1502 1504 1505 1507 1508 1510 1512
1505 1504 1503 1504 1504 1505 1505 1504 1505 1504 1506 1507 1505 1502 1487 1484 1483 1481 1481 1481 1481 1482 1483 1483 1483 1483 1484 1485 1486 1487 1488 1489 1491 1493 1494 1495 1496 1498 1499 1501 1503 1505 1507 1508
1505 1505 1504 1504 1504 1505 1505 1504 1505 1505 1507 1509 1506 1505 1490 1485 1482 1479 1479 1479 1479 1479 1480 1480 1481 1481 1481 1482 1483 1483 1484 1486 1487 1489 1490 1492 1493 1494 1496 1498 1500 1502 1503 1505
1504 1504 1504 1504 1503 1504 1504 1505 1506 1508 1510 1507 1503 1506 1493 1486 1481 1478 1477 1477 1477 1477 1478 1478 1478 1478 1478 1479 1479 1480 1481 1482 1484 1485 1487 1488 1489 1491 1492 1494 1495 1497 1499 1501
1505 1504 1504 1504 1504 1505 1506 1510 1513 1511 1513 1506 1505 1505 1492 1481 1479 1477 1476 1475 1475 1475 1475 1475 1475 1475 1475 1475 1476 1476 1477 1478 1480 1481 1482 1484 1485 1487 1488 1489 1491 1493 1495 1496
1510 1508 1505 1505 1506 1508 1508 1510 1514 1514 1514 1511 1508 1503 1488 1481 1478 1476 1475 1475 1474 1474 1473 1474 1473 1473 1473 1473 1473 1473 1474 1475 1476 1477 1478 1479 1481 1482 1484 1485 1487 1489 1490 1492
1513 1509 1506 1505 1505 1506 1509 1512 1512 1519 1523 1522 1508 1500 1487 1478 1478 1476 1475 1475 1474 1473 1473 1473 1472 1472 1471 1470 1470 1471 1471 1471 1472 1473 1474 1475 1476 1478 1479 1481 1482 1484 1486 1488
1514 1514 1508 1507 1506 1507 1507 1510 1516 1516 1514 1511 1507 1502 1490 1480 1479 1478 1476 1475 1474 1473 1473 1472 1471 1470 1469 1468 1468 1468 1468 1468 1468 1469 1470 1471 1472 1473 1474 1476 1477 1479 1481 1483
1513 1516 1511 1509 1508 1508 1510 1512 1513 1516 1516 1515 1511 1494 1482 1481 1478 1478 1477 1475 1474 1472 1471 1470 1469 1468 1467 1466 1465 1465 1465 1464 1464 1465 1466 1467 1467 1468 1469 1471 1472 1474 1476 1477
1513 1517 1515 1510 1508 1506 1506 1508 1512 1512 1514 1518 1516 1497 1479 1479 1477 1477 1476 1475 1473 1472 1471 1469 1467 1466 1464 1463 1462 1461 1461 1460 1461 1461 1461 1462 1463 1464 1464 1466 1467 1469 1470 1472
1512 1516 1513 1506 1509 1510 1508 1508 1508 1511 1514 1518 1513 1492 1479 1477 1476 1476 1475 1474 1472 1470 1469 1467 1465 1463 1461 1460 1459 1458 1457 1457 1457 1457 1457 1457 1458 1459 1459 1461 1462 1464 1465 1466
1509 1513 1512 1507 1502 1505 1508 1507 1507 1508 1510 1509 1501 1485 1478 1476 1476 1474 1473 1471 1470 1468 1466 1464 1462 1460 1459 1457 1456 1455 1454 1453 1453 1452 1452 1452 1453 1454 1455 1456 1457 1458 1460 1461
1508 1511 1511 1507 1504 1505 1503 1503 1504 1503 1499 1498 1486 1485 1476 1474 1474 1472 1470 1468 1467 1465 1463 1462 1460 1458 1456 1455 1454 1452 1451 1450 1449 1448 1448 1449 1449 1450 1450 1451 1452 1453 1455 1456
1508 1511 1510 1506 1503 1503 1501 1498 1498 1498 1496 1494 1488 1482 1473 1473 1471 1470 1468 1466 1464 1462 1461 1459 1457 1455 1454 1452 1451 1449 1447 1446 1445 1444 1444 1445 1445 1446 1446 1447 1448 1449 1450 1451
1509 1511 1509 1504 1504 1501 1496 1489 1490 1491 1489 1488 1484 1476 1471 1471 1469 1467 1466 1464 1462 1460 1459 1457 1455 1453 1451 1449 1447 1445 1444 1442 1441 1441 1441 1441 1441 1441 1442 1443 1443 1444 1445 1446
1508 1509 1510 1508 1505 1498 1483 1484 1484 1484 1482 1480 1477 1473 1471 1469 1466 1464 1463 1461 1459 1458 1456 1454 1452 1450 1448 1446 1445 1443 1441 1440 1438 1438 1437 1437 1437 1437 1438 1438 1438 1439 1440 1441
1503 1506 1510 1510 1506 1496 1483 1482 1483 1483 1477 1473 1472 1469 1468 1467 1464 1460 1459 1458 1457 1456 1454 1452 1449 1447 1445 1443 1441 1439 1438 1437 1435 1434 1434 1434 1433 1433 1433 1433 1434 1435 1435 1436
1505 1506 1510 1512 1505 1494 1479 1480 1478 1480 1475 1468 1468 1467 1466 1466 1466 1459 1457 1456 1454 1453 1451 1449 1446 1444 1442 1440 1438 1436 1435 1433 1432 1431 1431 1430 1430 1429 1429 1429 1429 1430 1431 1431
1508 1510 1510 1510 1505 1491 1480 1478 1479 1482 1471 1466 1465 1464 1464 1464 1462 1458 1455 1453 1452 1450 1448 1446 1444 1441 1439 1437 1435 1433 1432 1430 1429 1428 1427 1426 1426 1425 1425 1425 1425 1426 1426 1427
1502 1506 1508 1506 1504 1488 1476 1477 1478 1471 1466 1464 1463 1462 1461 1459 1457 1455 1453 1451 1449 1447 1445 1443 1440 1438 1436 1435 1433 1431 1429 1428 1426 1424 1423 1422 1421 1421 1421 1421 1421 1421 1422 1422
1494 1491 1490 1489 1481 1472 1471 1469 1467 1466 1465 1462 1461 1460 1459 1456 1454 1452 1450 1448 1446 1444 1442 1440 1438 1435 1433 1432 1430 1428 1426 1424 1422 1421 1420 1418 1417 1417 1417 1417 1417 1417 1418 1418
1487 1485 1484 1482 1472 1469 1467 1465 1464 1463 1462 1460 1459 1457 1456 1453 1451 1449 1447 1445 1443 1441 1439 1437 1435 1432 1430 1429 1427 1425 1423 1421 1420 1418 1416 1415 1414 1412 1412 1413 1413 1413 1413 1414
1478 1480 1479 1475 1467 1465 1461 1460 1459 1458 1457 1456 1455 1453 1452 1450 1448 1446 1444 1442 1439 1438 1436 1434 1432 1429 1427 1426 1424 1422 1421 1419 1417 1415 1414 1412 1411 1410 1409 1410 1410 1410 1410 1410
1471 1473 1474 1466 1461 1462 1457 1456 1455 1454 1452 1451 1450 1448 1447 1446 1444 1442 1440 1438 1436 1434 1432 1430 1429 1427 1425 1423 1421 1420 1418 1416 1414 1412 1411 1410 1409 1408 1408 1407 1407 1407 1407 1407